Location: Gebenbach
(49.5378°N, 11.8735°E)
Time: 03:03:51
(UTC+00:00)

Cosmos 1408 - Pass Details

Date: 29 October 2020
Orbit: 470 x 492 km, 82.6° (Epoch: 24 November)

Event Time Altitude Azimuth Distance (km) Brightness Sun altitude
Rises 18:12:30 0° 342° (NNW) 2,558 6.5 -22.8°
Reaches altitude 10° 18:14:44 10° 332° (NNW) 1,676 5.7 -23.1°
Maximum altitude 18:18:02 32° 268° (W) 852 4.4 -23.7°
Drops below altitude 10° 18:21:20 10° 204° (SSW) 1,674 5.5 -24.2°
Sets 18:23:33 0° 194° (SSW) 2,553 6.3 -24.6°
